Terug naar catalogus

CZ-4 DEB

ActiefSSO
NORAD 26202·DEBRIS·🇨🇳 China

Gelanceerd Oct 14, 1999 vanaf Taiyuan Satellite Launch Center

Loading…

Volgende Passages (komende 24 uur)

TLE

VersSource: Space-Track

Epoch: Sep 14, 2026, 13:15 UTC

1 26202U 99057CQ  26257.55261431  .00000477  00000-0  16061-3 0  9996
2 26202  98.8682 277.8011 0104341  77.4269  74.2379 14.38819053384626

Volg CZ-4 DEB in realtime met AllMySat

Download on the App Store